Cherry Point, NC

6:36 PM EDT on June 28, 2017 (GMT -0400)
Cherry Point Marine Corps Air Station

Weather History for KNKT - July, 2013

Change the Weather History Date:

Thursday, July 11, 2013

  Actual Average Record
Temperature  
Mean Temperature 80 °F -  
Max Temperature 87 °F 84 °F 96 °F (2015)
Min Temperature 73 °F 68 °F 68 °F (1996)
Cooling Degree Days 15    
Growing Degree Days 30 (Base 50)    
Moisture  
Dew Point 72 °F    
Average Humidity 79    
Maximum Humidity 94    
Minimum Humidity 61    
Precipitation  
Precipitation 0.04 in - - ()
Sea Level Pressure  
Sea Level Pressure 29.98 in    
Wind  
Wind Speed 7 mph ()    
Max Wind Speed 15 mph    
Max Gust Speed 22 mph    
Visibility 8.8 miles    
Events      
Averages and records for this station are not official NWS values.
T = Trace of Precipitation, MM = Missing Value Source: Averaged Metar Reports

Daily Weather History Graph

Daily Weather History Graph

Search for Another Location

Airport or City:

Trip Planner

Search our weather history database for the weather conditions in past years. The results will help you decide how hot, cold, wet, or windy it might be!

Date:

Astronomy

Jul. 11, 2013 Rise Set
Actual Time 6:02 AM EDT 8:23 PM EDT
Civil Twilight 5:33 AM EDT 8:52 PM EDT
Nautical Twilight 4:57 AM EDT 9:27 PM EDT
Astronomical Twilight 4:18 AM EDT 10:06 PM EDT
Moon 9:09 AM EDT (7/11) 10:13 PM EDT (7/11)
Length of Visible Light 15h 18m
Length of Day
14h 20m
Waxing Crescent, 10% of the Moon is Illuminated
Jul 11
Waxing Crescent
Jul 15
First Quarter
Jul 22
Full
Jul 29
Last Quarter
Aug 6
New

Hourly Weather History & Observations

Time (EDT) Temp. Heat Index Dew Point Humidity Pressure Visibility Wind Dir Wind Speed Gust Speed Precip Events Conditions
12:54 AM 77.0 °F - 71.1 °F 82% 30.02 in 10.0 mi SSW 5.8 mph - N/A   Clear
1:54 AM 77.0 °F - 71.1 °F 82% 30.01 in 10.0 mi SSW 4.6 mph - N/A   Clear
2:54 AM 75.9 °F - 72.0 °F 87% 29.99 in 10.0 mi South 4.6 mph - N/A   Mostly Cloudy
3:54 AM 73.9 °F - 72.0 °F 93% 29.97 in 10.0 mi South 3.5 mph - 0.02 in   Clear
4:54 AM 75.0 °F - 72.0 °F 90% 29.97 in 10.0 mi SSW 5.8 mph - 0.02 in   Scattered Clouds
5:54 AM 75.0 °F - 72.0 °F 90% 29.98 in 10.0 mi WSW 6.9 mph - N/A   Scattered Clouds
6:54 AM 75.0 °F - 72.0 °F 90% 29.99 in 10.0 mi SW 6.9 mph - N/A   Mostly Cloudy
7:25 AM 75.0 °F - 73.0 °F 94% 30.01 in 10.0 mi North - - N/A   Mostly Cloudy
7:54 AM 75.9 °F - 73.0 °F 91% 30.01 in 10.0 mi WSW 11.5 mph - N/A   Scattered Clouds
8:01 AM 77.0 °F - 73.0 °F 88% 30.01 in 10.0 mi WSW 11.5 mph - N/A   Partly Cloudy
8:54 AM 80.1 °F 84.2 °F 73.0 °F 79% 30.00 in 10.0 mi SW 11.5 mph - N/A   Partly Cloudy
9:46 AM 82.0 °F 87.4 °F 73.0 °F 74% 30.01 in 1.5 mi WSW 13.8 mph - N/A   Haze
10:54 AM 84.9 °F 89.4 °F 70.0 °F 61% 29.99 in 7.0 mi West 13.8 mph - N/A   Scattered Clouds
11:54 AM 84.9 °F 90.1 °F 71.1 °F 63% 29.99 in 7.0 mi SW 11.5 mph - N/A   Mostly Cloudy
12:54 PM 84.0 °F 89.6 °F 72.0 °F 67% 29.98 in 10.0 mi SW 15.0 mph 20.7 mph 0.00 in   Mostly Cloudy
1:54 PM 87.1 °F 93.6 °F 72.0 °F 61% 29.96 in 2.0 mi SW 13.8 mph 20.7 mph N/A   Haze
2:01 PM 86.0 °F 92.2 °F 72.0 °F 63% 29.97 in 7.0 mi SSW 11.5 mph 20.7 mph N/A   Mostly Cloudy
2:54 PM 86.0 °F 92.2 °F 72.0 °F 63% 29.94 in 7.0 mi SW 13.8 mph 21.9 mph N/A   Mostly Cloudy
5:54 PM 84.0 °F 89.0 °F 71.1 °F 65% 29.91 in 10.0 mi South 12.7 mph - N/A   Scattered Clouds
8:54 PM 79.0 °F - 73.0 °F 82% 29.94 in 10.0 mi SSW 8.1 mph - N/A   Overcast
9:54 PM 77.0 °F - 72.0 °F 84% 29.94 in 10.0 mi SW 3.5 mph - N/A   Mostly Cloudy
10:54 PM 77.0 °F - 72.0 °F 84% 29.95 in 10.0 mi SSW 5.8 mph - N/A   Scattered Clouds
11:54 PM 77.0 °F - 72.0 °F 84% 29.94 in 10.0 mi SSW 5.8 mph - N/A   Mostly Cloudy